Weather History for Worland, WY

Change the Weather History Date:

Tuesday, January 1, 2013

  Actual Average Record
Temperature  
Mean Temperature 11 °F 16 °F  
Max Temperature 21 °F 30 °F 55 °F (1997)
Min Temperature 0 °F 3 °F -36 °F (1979)
Degree Days  
Heating Degree Days 54 49  
Month to date heating degree days 54 49  
Since 1 July heating degree days 2796 3412  
Cooling Degree Days 0 0  
Month to date cooling degree days 0 0  
Year to date cooling degree days 0 0  
Moisture  
Dew Point 8 °F    
Average Humidity 80    
Maximum Humidity 92    
Minimum Humidity 67    
Precipitation  
Precipitation T in 0.01 in 0.15 in (1968)
Month to date precipitation T 0.01  
Year to date precipitation T 0.01  
Sea Level Pressure  
Sea Level Pressure 30.33 in    
Wind  
Wind Speed 2 mph (South)    
Max Wind Speed 13 mph    
Max Gust Speed 15 mph    
Visibility 7 miles    
Events Snow    
T = Trace of Precipitation, MM = Missing Value Source: NWS Daily Summary

Daily Weather History Graph

Daily Weather History Graph

Search for Another Location

Airport:

Trip Planner

Search our weather history database for the weather conditions in past years. The results will help you decide how hot, cold, wet, or windy it might be!

Date:

Astronomy

Jan. 01, 2013 Rise Set
Actual Time 7:46 AM MST 4:44 PM MST
Civil Twilight 7:13 AM MST 5:17 PM MST
Nautical Twilight 6:37 AM MST 5:54 PM MST
Astronomical Twilight 6:02 AM MST 6:29 PM MST
Moon 9:29 PM MST (1/1) 9:51 AM MST (1/1)
Length of Visible Light 10h 04m
Length of Day
8h 58m
Waning Gibbous, 83% of the Moon is Illuminated
Jan 1
Waning Gibbous
Jan 4
Last Quarter
Jan 11
New
Jan 18
First Quarter
Jan 26
Full

Hourly Weather History & Observations

Time (MST) Temp. Windchill Dew Point Humidity Pressure Visibility Wind Dir Wind Speed Gust Speed Precip Events Conditions
12:26 AM 8.6 °F 0.1 °F 3.2 °F 79% 30.11 in 2.5 mi WSW 4.6 mph - 0.00 in Snow Light Snow
12:53 AM 8.1 °F -3.2 °F 5.0 °F 87% 30.35 in 2.5 mi SW 6.9 mph - 0.00 in Snow Light Snow
1:07 AM 8.6 °F -1.3 °F 3.2 °F 79% 30.12 in 3.0 mi SW 5.8 mph - 0.00 in Snow Light Snow
1:53 AM 9.0 °F - 5.0 °F 84% 30.35 in 5.0 mi Calm Calm - 0.00 in Snow Light Snow
2:53 AM 9.0 °F - 6.1 °F 88% 30.37 in 10.0 mi Calm Calm - 0.00 in   Overcast
4:53 AM 10.9 °F - 7.0 °F 84% 30.39 in 10.0 mi Calm Calm - N/A   Overcast
5:53 AM 10.9 °F - 7.0 °F 84% 30.40 in 10.0 mi Calm Calm - N/A   Overcast
7:53 AM 6.1 °F - 3.9 °F 91% 30.41 in 10.0 mi Calm Calm - N/A   Partly Cloudy
8:53 AM 8.1 °F - 5.0 °F 87% 30.40 in 10.0 mi Calm Calm - N/A   Overcast
9:53 AM 10.9 °F 4.7 °F 8.1 °F 88% 30.39 in 10.0 mi West 3.5 mph - N/A   Overcast
10:53 AM 10.9 °F - 7.0 °F 84% 30.37 in 10.0 mi Calm Calm - N/A   Clear
11:53 AM 14.0 °F 8.2 °F 8.1 °F 77% 30.34 in 9.0 mi ENE 3.5 mph - N/A   Partly Cloudy
12:53 PM 15.1 °F - 9.0 °F 77% 30.29 in 9.0 mi Calm Calm - N/A   Overcast
1:53 PM 19.0 °F 11.1 °F 10.9 °F 71% 30.27 in 10.0 mi North 5.8 mph - N/A   Clear
2:53 PM 19.9 °F 12.1 °F 12.9 °F 74% 30.28 in 10.0 mi NNW 5.8 mph - N/A   Overcast
3:53 PM 21.0 °F - 15.1 °F 78% 30.32 in 6.0 mi Calm Calm - 0.00 in Snow Light Snow
4:36 PM 19.4 °F 10.4 °F 15.8 °F 86% 30.14 in 1.8 mi East 6.9 mph - 0.00 in Snow Light Snow
4:53 PM 19.9 °F 13.4 °F 17.1 °F 89% 30.33 in 3.0 mi South 4.6 mph - 0.00 in Snow Light Snow
5:53 PM 12.9 °F 5.2 °F 10.9 °F 92% 30.39 in 10.0 mi ESE 4.6 mph - 0.00 in   Mostly Cloudy
6:53 PM 12.0 °F - 10.0 °F 92% 30.41 in 10.0 mi Calm Calm - N/A   Partly Cloudy
7:53 PM 6.1 °F - 3.9 °F 91% 30.45 in 10.0 mi Calm Calm - N/A   Partly Cloudy
8:53 PM 9.0 °F - 7.0 °F 92% 30.45 in 2.5 mi Calm Calm - N/A   Clear
9:02 PM 3.2 °F - 3.2 °F 100% 30.20 in 1.0 mi Calm Calm - N/A   Clear
9:10 PM 3.2 °F -4.2 °F 3.2 °F 100% 30.21 in 0.8 mi SE 3.5 mph - N/A   Clear
9:18 PM 1.4 °F -9.9 °F 1.4 °F 100% 30.21 in 2.0 mi SSW 5.8 mph - N/A   Clear
9:25 PM 6.8 °F -6.9 °F 3.2 °F 85% 30.22 in 10.0 mi SW 9.2 mph - N/A   Scattered Clouds
9:53 PM 10.0 °F -0.9 °F 7.0 °F 87% 30.45 in 10.0 mi SSW 6.9 mph - N/A   Overcast
10:53 PM 12.0 °F 5.9 °F 9.0 °F 88% 30.44 in 10.0 mi SSE 3.5 mph - N/A   Overcast
11:53 PM 14.0 °F 8.2 °F 10.9 °F 88% 30.42 in 10.0 mi ESE 3.5 mph - N/A   Overcast